Minneapolis Flying Cloud, MN

8:56 AM CST on November 18, 2019 (GMT -0600)
Flying Cloud

Weather History for KFCM - September, 2019

Change the Weather History Date:

Tuesday, September 10, 2019

  Actual Average Record
Temperature  
Mean Temperature 71 °F -  
Max Temperature 78 °F 75 °F 89 °F (1998)
Min Temperature 64 °F 54 °F 48 °F (2014)
Cooling Degree Days 6    
Growing Degree Days 21 (Base 50)    
Moisture  
Dew Point 64 °F    
Average Humidity 80    
Maximum Humidity 93    
Minimum Humidity 58    
Precipitation  
Precipitation 0.00 in - - ()
Sea Level Pressure  
Sea Level Pressure 29.92 in    
Wind  
Wind Speed 8 mph (WSW)    
Max Wind Speed 13 mph    
Max Gust Speed 18 mph    
Visibility 10 miles    
Events      
Averages and records for this station are not official NWS values.
T = Trace of Precipitation, MM = Missing Value Source: NWS Daily Summary

Daily Weather History Graph

Daily Weather History Graph

Search for Another Location

Airport or City:

Astronomy

Sep. 10, 2019 Rise Set
Actual Time 6:46 AM CDT 7:34 PM CDT
Civil Twilight 6:16 AM CDT 8:03 PM CDT
Nautical Twilight 5:41 AM CDT 8:39 PM CDT
Astronomical Twilight 5:04 AM CDT 9:15 PM CDT
Moon 6:21 PM CDT (9/10) 3:01 AM CDT (9/10)
Length of Visible Light 13h 47m
Length of Day
12h 47m
Waxing Gibbous, 89% of the Moon is Illuminated
Sep 10
Waxing Gibbous
Sep 13
Full
Sep 21
Last Quarter
Sep 28
New
Oct 5
First Quarter

Hourly Weather History & Observations

Time (CDT) Temp. Dew Point Humidity Pressure Visibility Wind Dir Wind Speed Gust Speed Precip Events Conditions
12:53 AM 69.1 °F 66.0 °F 90% 29.79 in 10.0 mi South 8.1 mph - N/A   Clear
1:53 AM 69.1 °F 66.0 °F 90% 29.79 in 10.0 mi SSW 8.1 mph - N/A   Clear
2:53 AM 69.1 °F 66.0 °F 90% 29.78 in 10.0 mi SSW 11.5 mph - N/A   Clear
3:53 AM 69.1 °F 66.0 °F 90% 29.78 in 10.0 mi SSW 11.5 mph - N/A   Clear
4:53 AM 69.1 °F 66.0 °F 90% 29.79 in 10.0 mi SW 9.2 mph - N/A   Clear
5:53 AM 66.9 °F 64.9 °F 93% 29.83 in 8.0 mi SW 8.1 mph - N/A   Clear
6:53 AM 66.9 °F 64.9 °F 93% 29.84 in 7.0 mi WSW 6.9 mph - N/A   Mostly Cloudy
7:13 AM 66.9 °F 64.9 °F 93% 29.85 in 6.0 mi SW 6.9 mph - N/A   Overcast
7:53 AM 68.0 °F 64.9 °F 90% 29.88 in 8.0 mi WSW 9.2 mph - N/A   Overcast
8:53 AM 68.0 °F 64.9 °F 90% 29.90 in 8.0 mi SW 5.8 mph - N/A   Overcast
9:35 AM 69.1 °F 64.9 °F 87% 29.93 in 9.0 mi SW 6.9 mph - N/A   Overcast
9:49 AM 69.8 °F 64.4 °F 83% 29.93 in 9.0 mi SW 8.1 mph - N/A   Overcast
9:53 AM 69.1 °F 64.9 °F 87% 29.93 in 10.0 mi WSW 6.9 mph - N/A   Overcast
10:05 AM 69.1 °F 64.9 °F 87% 29.94 in 10.0 mi WSW 8.1 mph - N/A   Overcast
10:53 AM 72.0 °F 64.0 °F 76% 29.93 in 10.0 mi SW 10.4 mph - N/A   Mostly Cloudy
11:09 AM 71.1 °F 63.0 °F 75% 29.94 in 10.0 mi WSW 11.5 mph - N/A   Scattered Clouds
11:53 AM 73.0 °F 64.0 °F 73% 29.95 in 10.0 mi SW 9.2 mph - N/A   Partly Cloudy
12:06 PM 73.0 °F 63.0 °F 71% 29.96 in 10.0 mi WSW 9.2 mph - N/A   Mostly Cloudy
12:30 PM 73.0 °F 63.0 °F 71% 29.96 in 10.0 mi West 9.2 mph - N/A   Partly Cloudy
12:53 PM 73.9 °F 63.0 °F 68% 29.95 in 10.0 mi SW 12.7 mph - N/A   Clear
2:53 PM 77.0 °F 62.1 °F 60% 29.97 in 10.0 mi West 11.5 mph 18.4 mph N/A   Clear
3:53 PM 78.1 °F 63.0 °F 60% 29.97 in 10.0 mi WNW 6.9 mph - N/A   Clear
4:53 PM 78.1 °F 63.0 °F 60% 29.97 in 10.0 mi NW 9.2 mph - N/A   Clear
5:53 PM 77.0 °F 61.0 °F 58% 29.98 in 10.0 mi WNW 5.8 mph - N/A   Clear
6:53 PM 75.9 °F 61.0 °F 60% 29.98 in 10.0 mi Calm Calm - N/A   Clear
7:53 PM 70.0 °F 63.0 °F 78% 30.00 in 10.0 mi Calm Calm - N/A   Clear
8:53 PM 68.0 °F 62.1 °F 81% 30.01 in 10.0 mi North 4.6 mph - N/A   Clear
9:53 PM 66.0 °F 62.1 °F 87% 30.03 in 10.0 mi North 4.6 mph - N/A   Clear
10:53 PM 64.9 °F 62.1 °F 90% 30.04 in 10.0 mi NNE 4.6 mph - N/A   Clear
11:53 PM 66.0 °F 61.0 °F 84% 30.01 in 10.0 mi NE 4.6 mph - N/A   Clear